Location: Arbon
(43.0005°N, 0.7472°E)
Time: 23:51:55
(UTC+00:00)

S-56A Canister/Altair - Pass Details

Date: 08 December 2020
Orbit: 633 x 2499 km, 38.9° (Epoch: 19 January)

Event Time Altitude Azimuth Distance (km) Brightness Sun altitude
Rises 20:29:27 0° 278° (W) 5,787 12.8 -44.3°
Reaches altitude 10° 20:33:41 10° 275° (W) 4,555 12.0 -45.0°
Enters shadow 20:42:30 46° 247° (WSW) 2,150 9.8 -46.6°
